,,Stat5,,Stat1,,Stat2,,Stat3,,Stat4,,Wind1,,Wind1,
time,status,PA1M_AVG,status,PR1M_SUM,status,RH1M_AVG,status,SR1M_AVG,status,TA1M_AVG,status,W1dAve1m,status,W1sAve1m,
2001-12-13, 00:00:01,VALID,918.92,VALID,0,VALID,97.719,VALID,0,VALID,19.2591,VALID,11,VALID,0,
2001-12-13, 00:01:00,VALID,918.909,VALID,0,VALID,97.7889,VALID,-0.0169808,VALID,19.2619,VALID,29,VALID,0,
2001-12-13, 00:02:00,VALID,918.864,VALID,0,VALID,97.6948,VALID,0,VALID,19.2358,VALID,30,VALID,0,
2001-12-13, 00:03:00,VALID,918.831,VALID,0,VALID,97.4532,VALID,0.0169808,VALID,19.1881,VALID,30,VALID,0,
2001-12-13, 00:04:00,VALID,918.804,VALID,0,VALID,97.4558,VALID,0,VALID,19.1454,VALID,18,VALID,0.547075,
2001-12-13, 00:05:00,VALID,918.792,VALID,0,VALID,97.7292,VALID,0,VALID,19.201,VALID,19,VALID,0.433105,
2001-12-13, 00:06:00,VALID,918.782,VALID,0,VALID,97.7292,VALID,-0.0169808,VALID,19.2432,VALID,19,VALID,0.398015,
2001-12-13, 00:07:00,VALID,918.774,VALID,0,VALID,97.5677,VALID,-0.0169808,VALID,19.2298,VALID,20,VALID,0.30888,
2001-12-13, 00:08:00,VALID,918.775,VALID,0,VALID,97.4774,VALID,-0.0339617,VALID,19.2199,VALID,20,VALID,0,
2001-12-13, 00:09:00,VALID,918.776,VALID,0,VALID,97.4176,VALID,0,VALID,19.2296,VALID,20,VALID,0,
2001-12-13, 00:10:00,VALID,918.771,VALID,0,VALID,97.3261,VALID,-0.0169808,VALID,19.2395,VALID,20,VALID,0,
2001-12-13, 00:11:00,VALID,918.776,VALID,0,VALID,97.0857,VALID,0,VALID,19.2331,VALID,20,VALID,0,
2001-12-13, 00:12:00,VALID,918.783,VALID,0,VALID,96.9675,VALID,-0.0169808,VALID,19.198,VALID,20,VALID,0,
2001-12-13, 00:13:00,VALID,918.785,VALID,0,VALID,96.7818,VALID,-0.0169808,VALID,19.1555,VALID,139,VALID,0.139453,
2001-12-13, 00:14:00,VALID,918.792,VALID,0,VALID,96.6076,VALID,0,VALID,19.1011,VALID,160,VALID,0.520059,
2001-12-13, 00:15:00,VALID,918.816,VALID,0,VALID,96.5567,VALID,-0.0339617,VALID,19.0552,VALID,160,VALID,0.434896,
2001-12-13, 00:16:00,VALID,918.83,VALID,0,VALID,96.6686,VALID,0,VALID,19.0333,VALID,160,VALID,0.25,
2001-12-13, 00:17:00,VALID,918.838,VALID,0,VALID,96.792,VALID,-0.0169808,VALID,19.0137,VALID,164,VALID,0.359797,
2001-12-13, 00:18:00,VALID,918.834,VALID,0,VALID,96.7907,VALID,-0.0169808,VALID,19.0079,VALID,163,VALID,0.0698902,
2001-12-13, 00:19:00,VALID,918.836,VALID,0,VALID,96.8187,VALID,0,VALID,18.9749,VALID,167,VALID,0.194111,
2001-12-13, 00:20:00,VALID,918.845,VALID,0,VALID,97.0794,VALID,-0.0169808,VALID,18.9881,VALID,167,VALID,0.632612,
2001-12-13, 00:21:00,VALID,918.86,VALID,0,VALID,97.3032,VALID,-0.0509425,VALID,18.998,VALID,172,VALID,0.773214,
2001-12-13, 00:22:00,VALID,918.875,VALID,0,VALID,97.4558,VALID,-0.0509425,VALID,19.001,VALID,173,VALID,0.800576,
2001-12-13, 00:23:00,VALID,918.872,VALID,0,VALID,97.5359,VALID,-0.0509425,VALID,19.0047,VALID,169,VALID,0.610577,
2001-12-13, 00:24:00,VALID,918.866,VALID,0,VALID,97.5829,VALID,-0.0339617,VALID,18.9851,VALID,163,VALID,0.442578,
2001-12-13, 00:25:00,VALID,918.858,VALID,0,VALID,97.6529,VALID,-0.0339617,VALID,18.9627,VALID,163,VALID,0.287796,
2001-12-13, 00:26:00,VALID,918.838,VALID,0,VALID,97.7559,VALID,-0.0339617,VALID,18.9495,VALID,163,VALID,0.00464527,
2001-12-13, 00:27:00,VALID,918.832,VALID,0,VALID,97.8436,VALID,0,VALID,18.9364,VALID,162,VALID,0.226563,
2001-12-13, 00:28:00,VALID,918.809,VALID,0,VALID,97.9237,VALID,-0.0169808,VALID,18.9299,VALID,161,VALID,0.207813,
2001-12-13, 00:29:00,VALID,918.81,VALID,0,VALID,97.9619,VALID,-0.0169808,VALID,18.9269,VALID,161,VALID,0,
2001-12-13, 00:30:00,VALID,918.81,VALID,0,VALID,98.0611,VALID,-0.0509425,VALID,18.9207,VALID,161,VALID,0,
2001-12-13, 00:31:00,VALID,918.811,VALID,0,VALID,98.1958,VALID,-0.0169808,VALID,18.9297,VALID,172,VALID,0,
2001-12-13, 00:32:00,VALID,918.815,VALID,0,VALID,98.3446,VALID,0,VALID,18.9654,VALID,176,VALID,0,
2001-12-13, 00:33:00,VALID,918.808,VALID,0,VALID,98.3968,VALID,-0.0169808,VALID,18.9883,VALID,151,VALID,0,
2001-12-13, 00:34:00,VALID,918.787,VALID,0,VALID,98.4375,VALID,-0.0169808,VALID,19.0079,VALID,153,VALID,0,
2001-12-13, 00:35:00,VALID,918.769,VALID,0,VALID,98.4591,VALID,0,VALID,19.0271,VALID,155,VALID,0,
2001-12-13, 00:36:00,VALID,918.754,VALID,0,VALID,98.5227,VALID,0.0849042,VALID,19.0482,VALID,163,VALID,0,
2001-12-13, 00:37:00,VALID,918.737,VALID,0,VALID,98.5137,VALID,0.0509425,VALID,19.0547,VALID,163,VALID,0,
2001-12-13, 00:38:00,VALID,918.741,VALID,0,VALID,98.515,VALID,0.0679233,VALID,19.0611,VALID,163,VALID,0,
2001-12-13, 00:39:00,VALID,918.725,VALID,0,VALID,98.1424,VALID,0.0679233,VALID,18.9707,VALID,75,VALID,0,
2001-12-13, 00:40:00,VALID,918.706,VALID,0,VALID,97.9237,VALID,0.0509425,VALID,18.8321,VALID,46,VALID,0,
2001-12-13, 00:41:00,VALID,918.681,VALID,0,VALID,98.2404,VALID,0.0509425,VALID,18.8162,VALID,58,VALID,0.452724,
2001-12-13, 00:42:00,VALID,918.672,VALID,0,VALID,98.6358,VALID,0.0849042,VALID,18.89,VALID,60,VALID,0.889423,
2001-12-13, 00:43:00,VALID,918.656,VALID,0,VALID,98.7426,VALID,0.101885,VALID,18.961,VALID,69,VALID,0.64375,
2001-12-13, 00:44:00,VALID,918.668,VALID,0,VALID,98.7986,VALID,0.118866,VALID,19.0125,VALID,76,VALID,0.520117,
2001-12-13, 00:45:00,VALID,918.664,VALID,0,VALID,98.8571,VALID,0.101885,VALID,19.0609,VALID,76,VALID,0.361328,
2001-12-13, 00:46:00,VALID,918.646,VALID,0,VALID,98.8355,VALID,0.0849042,VALID,19.0773,VALID,76,VALID,0.181445,
2001-12-13, 00:47:00,VALID,918.65,VALID,0,VALID,98.7681,VALID,0.101885,VALID,19.0477,VALID,76,VALID,0,
2001-12-13, 00:48:00,VALID,918.634,VALID,0,VALID,98.749,VALID,0.0849042,VALID,19.0251,VALID,76,VALID,0.248047,
2001-12-13, 00:49:00,VALID,918.629,VALID,0,VALID,98.7414,VALID,0.101885,VALID,19.0154,VALID,76,VALID,0,
2001-12-13, 00:50:00,VALID,918.621,VALID,0,VALID,98.7795,VALID,0.0679233,VALID,18.9995,VALID,76,VALID,0,
2001-12-13, 00:51:00,VALID,918.602,VALID,0,VALID,98.8469,VALID,-0.0169808,VALID,19.0298,VALID,76,VALID,0,
2001-12-13, 00:52:00,VALID,918.579,VALID,0,VALID,98.8533,VALID,-0.0169808,VALID,19.0395,VALID,76,VALID,0,
2001-12-13, 00:53:00,VALID,918.547,VALID,0,VALID,98.8456,VALID,-0.0339617,VALID,19.0559,VALID,76,VALID,0,
2001-12-13, 00:54:00,VALID,918.537,VALID,0,VALID,98.8545,VALID,-0.0169808,VALID,19.0494,VALID,76,VALID,0,
2001-12-13, 00:55:00,VALID,918.512,VALID,0,VALID,98.8329,VALID,0,VALID,19.0529,VALID,76,VALID,0,
2001-12-13, 00:56:00,VALID,918.487,VALID,0,VALID,98.7439,VALID,0,VALID,18.9873,VALID,76,VALID,0.201923,
2001-12-13, 00:57:00,VALID,918.464,VALID,0,VALID,98.721,VALID,0,VALID,18.9652,VALID,75,VALID,0.441016,
2001-12-13, 00:58:00,VALID,918.432,VALID,0,VALID,98.7617,VALID,0.0509425,VALID,18.9486,VALID,74,VALID,0.553421,
2001-12-13, 00:59:00,VALID,918.384,VALID,0,VALID,98.8304,VALID,0,VALID,18.962,VALID,74,VALID,0.389992,
2001-12-13, 01:00:00,VALID,918.352,VALID,0,VALID,98.8787,VALID,0.0339617,VALID,18.9945,VALID,74,VALID,0.0169271,
2001-12-13, 01:01:00,VALID,918.33,VALID,0,VALID,98.8901,VALID,0,VALID,19.0102,VALID,74,VALID,0,
2001-12-13, 01:02:00,VALID,918.304,VALID,0,VALID,98.8609,VALID,0,VALID,18.9913,VALID,74,VALID,0,
2001-12-13, 01:03:00,VALID,918.309,VALID,0,VALID,98.8177,VALID,0,VALID,18.9558,VALID,74,VALID,0,
2001-12-13, 01:04:00,VALID,918.293,VALID,0,VALID,98.7782,VALID,0,VALID,18.92,VALID,74,VALID,0,
2001-12-13, 01:05:00,VALID,918.274,VALID,0,VALID,98.7604,VALID,-0.0169808,VALID,18.9006,VALID,74,VALID,0,
2001-12-13, 01:06:00,VALID,918.239,VALID,0,VALID,98.749,VALID,0,VALID,18.8882,VALID,74,VALID,0,
2001-12-13, 01:07:00,VALID,918.197,VALID,0,VALID,98.7515,VALID,0,VALID,18.8554,VALID,76,VALID,0.143914,
2001-12-13, 01:08:00,VALID,918.158,VALID,0,VALID,98.8304,VALID,0,VALID,18.8519,VALID,88,VALID,0.347862,
2001-12-13, 01:09:00,VALID,918.114,VALID,0,VALID,98.9448,VALID,0,VALID,18.8971,VALID,107,VALID,0.442925,
2001-12-13, 01:10:00,VALID,918.09,VALID,0,VALID,98.9575,VALID,-0.0169808,VALID,18.9324,VALID,116,VALID,0.277561,
2001-12-13, 01:11:00,VALID,918.093,VALID,0,VALID,98.9029,VALID,0,VALID,18.9334,VALID,108,VALID,0.399127,
2001-12-13, 01:12:00,VALID,918.068,VALID,0,VALID,98.8088,VALID,0,VALID,18.8782,VALID,93,VALID,0.371622,
2001-12-13, 01:13:00,VALID,918.053,VALID,0,VALID,98.7986,VALID,0,VALID,18.8295,VALID,92,VALID,0.627604,
2001-12-13, 01:14:00,VALID,918.038,VALID,0,VALID,98.8825,VALID,0.0169808,VALID,18.8231,VALID,92,VALID,0.847356,
2001-12-13, 01:15:00,VALID,918.006,VALID,0,VALID,98.8685,VALID,-0.0169808,VALID,18.8136,VALID,87,VALID,0.73137,
2001-12-13, 01:16:00,VALID,917.984,VALID,0,VALID,98.7846,VALID,-0.0339617,VALID,18.7557,VALID,75,VALID,0.800223,
2001-12-13, 01:17:00,VALID,917.979,VALID,0,VALID,98.9194,VALID,-0.0169808,VALID,18.7297,VALID,82,VALID,1.07187,
2001-12-13, 01:18:00,VALID,917.979,VALID,0,VALID,98.9881,VALID,-0.0169808,VALID,18.7585,VALID,89,VALID,0.890039,
2001-12-13, 01:19:00,VALID,918.004,VALID,0,VALID,99.0249,VALID,-0.0169808,VALID,18.7945,VALID,91,VALID,0.615625,
2001-12-13, 01:20:00,VALID,918.021,VALID,0,VALID,99.0237,VALID,-0.0169808,VALID,18.7943,VALID,129,VALID,0.607475,
2001-12-13, 01:21:00,VALID,918.047,VALID,0,VALID,99.086,VALID,-0.0169808,VALID,18.8169,VALID,140,VALID,0.860026,
2001-12-13, 01:22:00,VALID,918.052,VALID,0,VALID,99.1228,VALID,0,VALID,18.8586,VALID,150,VALID,1.00714,
2001-12-13, 01:23:00,VALID,918.065,VALID,0,VALID,99.1674,VALID,0,VALID,18.8907,VALID,152,VALID,0.964527,
2001-12-13, 01:24:00,VALID,918.062,VALID,0,VALID,99.1763,VALID,0.0339617,VALID,18.9493,VALID,147,VALID,0.753378,
2001-12-13, 01:25:00,VALID,918.051,VALID,0,VALID,99.1941,VALID,0,VALID,18.9809,VALID,136,VALID,0.841346,
2001-12-13, 01:26:00,VALID,918.029,VALID,0,VALID,99.2004,VALID,0,VALID,19.0067,VALID,109,VALID,0.74399,
2001-12-13, 01:27:00,VALID,918.017,VALID,0,VALID,99.1966,VALID,0,VALID,19.0321,VALID,108,VALID,1.01585,
2001-12-13, 01:28:00,VALID,918.015,VALID,0,VALID,99.1915,VALID,0,VALID,19.0489,VALID,115,VALID,0.887336,
2001-12-13, 01:29:00,VALID,918.009,VALID,0,VALID,99.1979,VALID,0,VALID,19.0649,VALID,132,VALID,0.835136,
2001-12-13, 01:30:00,VALID,918.004,VALID,0,VALID,99.2004,VALID,0,VALID,19.0875,VALID,157,VALID,0.331445,
2001-12-13, 01:31:00,VALID,918.002,VALID,0,VALID,99.2119,VALID,0,VALID,19.1106,VALID,121,VALID,0.711149,
2001-12-13, 01:32:00,VALID,917.996,VALID,0,VALID,99.2068,VALID,0,VALID,19.1232,VALID,128,VALID,1.0796,
2001-12-13, 01:33:00,VALID,917.999,VALID,0,VALID,99.2258,VALID,0.0169808,VALID,19.1456,VALID,134,VALID,1.12109,
2001-12-13, 01:34:00,VALID,917.981,VALID,0,VALID,99.2208,VALID,0,VALID,19.1655,VALID,117,VALID,0.718359,
2001-12-13, 01:35:00,VALID,917.99,VALID,0,VALID,99.222,VALID,-0.0169808,VALID,19.1848,VALID,136,VALID,0.683398,
2001-12-13, 01:36:00,VALID,917.974,VALID,0,VALID,99.2119,VALID,-0.0679233,VALID,19.1814,VALID,124,VALID,0.770433,
2001-12-13, 01:37:00,VALID,917.969,VALID,0,VALID,99.2271,VALID,0,VALID,19.2077,VALID,125,VALID,0.980168,
2001-12-13, 01:38:00,VALID,917.962,VALID,0,VALID,99.2322,VALID,0,VALID,19.2139,VALID,143,VALID,0.813616,
2001-12-13, 01:39:00,VALID,917.958,VALID,0,VALID,99.2297,VALID,0,VALID,19.2266,VALID,127,VALID,0.586538,
2001-12-13, 01:40:00,VALID,917.952,VALID,0,VALID,99.25,VALID,0,VALID,19.2529,VALID,105,VALID,0.530839,
2001-12-13, 01:41:00,VALID,917.934,VALID,0,VALID,99.2576,VALID,0,VALID,19.2654,VALID,124,VALID,0.510691,
2001-12-13, 01:42:00,VALID,917.905,VALID,0,VALID,99.2538,VALID,0,VALID,19.2979,VALID,109,VALID,0.518229,
2001-12-13, 01:43:00,VALID,917.892,VALID,0,VALID,99.2475,VALID,-0.0169808,VALID,19.3076,VALID,66,VALID,0.235894,
2001-12-13, 01:44:00,VALID,917.89,VALID,0,VALID,99.2386,VALID,-0.0169808,VALID,19.3009,VALID,69,VALID,0.048943,
2001-12-13, 01:45:00,VALID,917.895,VALID,0,VALID,99.2475,VALID,0,VALID,19.3039,VALID,71,VALID,0.112542,
2001-12-13, 01:46:00,VALID,917.875,VALID,0,VALID,99.2513,VALID,0,VALID,19.33,VALID,73,VALID,0.181691,
2001-12-13, 01:47:00,VALID,917.872,VALID,0,VALID,99.2424,VALID,0.0169808,VALID,19.3297,VALID,74,VALID,0.111779,
2001-12-13, 01:48:00,VALID,917.876,VALID,0,VALID,99.2335,VALID,0,VALID,19.3367,VALID,80,VALID,0,
2001-12-13, 01:49:00,VALID,917.858,VALID,0,VALID,99.2335,VALID,-0.0339617,VALID,19.3237,VALID,88,VALID,0,
2001-12-13, 01:50:00,VALID,917.865,VALID,0,VALID,99.2284,VALID,-0.0169808,VALID,19.3205,VALID,88,VALID,0,
2001-12-13, 01:51:00,VALID,917.854,VALID,0,VALID,99.2233,VALID,0,VALID,19.317,VALID,88,VALID,0,
2001-12-13, 01:52:00,VALID,917.862,VALID,0,VALID,99.2297,VALID,-0.0169808,VALID,19.2972,VALID,89,VALID,0,
2001-12-13, 01:53:00,VALID,917.855,VALID,0,VALID,99.2411,VALID,0,VALID,19.3237,VALID,97,VALID,0,
2001-12-13, 01:54:00,VALID,917.846,VALID,0,VALID,99.2462,VALID,0,VALID,19.3364,VALID,122,VALID,0,
2001-12-13, 01:55:00,VALID,917.824,VALID,0,VALID,99.25,VALID,0,VALID,19.3493,VALID,140,VALID,0.132813,
2001-12-13, 01:56:00,VALID,917.815,VALID,0,VALID,99.2589,VALID,0,VALID,19.359,VALID,142,VALID,0.610431,
2001-12-13, 01:57:00,VALID,917.805,VALID,0,VALID,99.2551,VALID,0.0339617,VALID,19.3516,VALID,141,VALID,0.651816,
2001-12-13, 01:58:00,VALID,917.79,VALID,0,VALID,99.25,VALID,0,VALID,19.3551,VALID,140,VALID,0.544071,
2001-12-13, 01:59:00,VALID,917.775,VALID,0,VALID,99.2437,VALID,0,VALID,19.3717,VALID,114,VALID,0.853566,
2001-12-13, 02:00:00,VALID,917.759,VALID,0,VALID,99.2271,VALID,0,VALID,19.3424,VALID,108,VALID,0.572768,
2001-12-13, 02:01:00,VALID,917.741,VALID,0,VALID,99.2437,VALID,0,VALID,19.3426,VALID,117,VALID,0.428454,
2001-12-13, 02:02:00,VALID,917.747,VALID,0,VALID,99.2411,VALID,0,VALID,19.3496,VALID,148,VALID,0.522636,
2001-12-13, 02:03:00,VALID,917.753,VALID,0,VALID,99.2449,VALID,0,VALID,19.3362,VALID,152,VALID,0.80918,
2001-12-13, 02:04:00,VALID,917.745,VALID,0,VALID,99.2449,VALID,0.0169808,VALID,19.3362,VALID,140,VALID,0.607264,
2001-12-13, 02:05:00,VALID,917.733,VALID,0,VALID,99.2487,VALID,0,VALID,19.3426,VALID,145,VALID,0.635769,
2001-12-13, 02:06:00,VALID,917.715,VALID,0,VALID,99.2538,VALID,0,VALID,19.3456,VALID,141,VALID,0.789063,
2001-12-13, 02:07:00,VALID,917.699,VALID,0,VALID,99.2602,VALID,0,VALID,19.3486,VALID,140,VALID,0.795898,
2001-12-13, 02:08:00,VALID,917.692,VALID,0,VALID,99.2475,VALID,0,VALID,19.3481,VALID,141,VALID,0.693555,
2001-12-13, 02:09:00,VALID,917.669,VALID,0,VALID,99.2615,VALID,0,VALID,19.372,VALID,141,VALID,0.380008,
2001-12-13, 02:10:00,VALID,917.669,VALID,0,VALID,99.2564,VALID,0.0169808,VALID,19.3648,VALID,152,VALID,0.343349,
2001-12-13, 02:11:00,VALID,917.672,VALID,0,VALID,99.2691,VALID,0,VALID,19.365,VALID,139,VALID,0.945089,
2001-12-13, 02:12:00,VALID,917.677,VALID,0,VALID,99.2665,VALID,0,VALID,19.3747,VALID,143,VALID,1.03365,
2001-12-13, 02:13:00,VALID,917.665,VALID,0,VALID,99.2564,VALID,0,VALID,19.368,VALID,156,VALID,0.809622,
2001-12-13, 02:14:00,VALID,917.659,VALID,0,VALID,99.2691,VALID,0,VALID,19.3712,VALID,152,VALID,0.521587,
2001-12-13, 02:15:00,VALID,917.651,VALID,0,VALID,99.2716,VALID,0.0169808,VALID,19.3904,VALID,129,VALID,0.0364583,
2001-12-13, 02:16:00,VALID,917.636,VALID,0,VALID,99.2691,VALID,0.0169808,VALID,19.404,VALID,127,VALID,0.306858,
2001-12-13, 02:17:00,VALID,917.61,VALID,0,VALID,99.2589,VALID,0.0679233,VALID,19.3904,VALID,104,VALID,0.17716,
2001-12-13, 02:18:00,VALID,917.593,VALID,0,VALID,99.2627,VALID,-0.0169808,VALID,19.3871,VALID,123,VALID,0.110431,
2001-12-13, 02:19:00,VALID,917.57,VALID,0,VALID,99.2665,VALID,0,VALID,19.3941,VALID,123,VALID,0,
2001-12-13, 02:20:00,VALID,917.554,VALID,0,VALID,99.2678,VALID,-0.0169808,VALID,19.4045,VALID,123,VALID,0,
2001-12-13, 02:21:00,VALID,917.537,VALID,0,VALID,99.2615,VALID,0.0169808,VALID,19.4043,VALID,123,VALID,0,
2001-12-13, 02:22:00,VALID,917.526,VALID,0,VALID,99.2513,VALID,0.0169808,VALID,19.4008,VALID,123,VALID,0,
2001-12-13, 02:23:00,VALID,917.507,VALID,0,VALID,99.2691,VALID,0,VALID,19.3941,VALID,123,VALID,0,
2001-12-13, 02:24:00,VALID,917.512,VALID,0,VALID,99.2602,VALID,0,VALID,19.3844,VALID,125,VALID,0,
2001-12-13, 02:25:00,VALID,917.515,VALID,0,VALID,99.2653,VALID,0,VALID,19.3913,VALID,125,VALID,0,
2001-12-13, 02:26:00,VALID,917.506,VALID,0,VALID,99.2627,VALID,0,VALID,19.3978,VALID,125,VALID,0.0139358,
2001-12-13, 02:27:00,VALID,917.508,VALID,0,VALID,99.2564,VALID,0,VALID,19.3849,VALID,105,VALID,0.197483,
2001-12-13, 02:28:00,VALID,917.49,VALID,0,VALID,99.2589,VALID,0,VALID,19.3821,VALID,103,VALID,0.102679,
2001-12-13, 02:29:00,VALID,917.485,VALID,0,VALID,99.2615,VALID,-0.0169808,VALID,19.3717,VALID,100,VALID,0.15266,
2001-12-13, 02:30:00,VALID,917.463,VALID,0,VALID,99.2589,VALID,0,VALID,19.372,VALID,101,VALID,0.506968,
2001-12-13, 02:31:00,VALID,917.44,VALID,0,VALID,99.2602,VALID,0,VALID,19.3757,VALID,98,VALID,0.872796,
2001-12-13, 02:32:00,VALID,917.417,VALID,0,VALID,99.2576,VALID,0,VALID,19.3655,VALID,101,VALID,0.41246,
2001-12-13, 02:33:00,VALID,917.405,VALID,0,VALID,99.2665,VALID,0,VALID,19.3585,VALID,100,VALID,0.302679,
2001-12-13, 02:34:00,VALID,917.394,VALID,0,VALID,99.2691,VALID,0,VALID,19.372,VALID,79,VALID,0.186472,
2001-12-13, 02:35:00,VALID,917.374,VALID,0,VALID,99.2742,VALID,0,VALID,19.3787,VALID,99,VALID,0.466546,
2001-12-13, 02:36:00,VALID,917.384,VALID,0,VALID,99.278,VALID,-0.0339617,VALID,19.3948,VALID,53,VALID,0.146289,
2001-12-13, 02:37:00,VALID,917.371,VALID,0,VALID,99.2818,VALID,0,VALID,19.3911,VALID,34,VALID,0.310389,
2001-12-13, 02:38:00,VALID,917.368,VALID,0,VALID,99.2754,VALID,0.0339617,VALID,19.4013,VALID,24,VALID,0.222551,
2001-12-13, 02:39:00,VALID,917.34,VALID,0,VALID,99.2742,VALID,0,VALID,19.401,VALID,25,VALID,0,
2001-12-13, 02:40:00,VALID,917.336,VALID,0,VALID,99.2818,VALID,-0.0339617,VALID,19.4077,VALID,25,VALID,0,
2001-12-13, 02:41:00,VALID,917.318,VALID,0,VALID,99.2742,VALID,-0.0169808,VALID,19.404,VALID,25,VALID,0,
2001-12-13, 02:42:00,VALID,917.311,VALID,0,VALID,99.2576,VALID,-0.0169808,VALID,19.4107,VALID,25,VALID,0,
2001-12-13, 02:43:00,VALID,917.296,VALID,0,VALID,99.264,VALID,0,VALID,19.401,VALID,25,VALID,0,
2001-12-13, 02:44:00,VALID,917.294,VALID,0,VALID,99.2704,VALID,-0.0169808,VALID,19.3943,VALID,25,VALID,0,
2001-12-13, 02:45:00,VALID,917.294,VALID,0,VALID,99.2716,VALID,0.0169808,VALID,19.4139,VALID,51,VALID,0,
2001-12-13, 02:46:00,VALID,917.284,VALID,0,VALID,99.2767,VALID,0,VALID,19.4072,VALID,157,VALID,0,
2001-12-13, 02:47:00,VALID,917.285,VALID,0,VALID,99.2627,VALID,0,VALID,19.41,VALID,148,VALID,0,
2001-12-13, 02:48:00,VALID,917.282,VALID,0,VALID,99.2615,VALID,-0.0169808,VALID,19.4139,VALID,157,VALID,0.546875,
2001-12-13, 02:49:00,VALID,917.273,VALID,0,VALID,99.2589,VALID,-0.0339617,VALID,19.4107,VALID,151,VALID,0.934245,
2001-12-13, 02:50:00,VALID,917.266,VALID,0,VALID,99.2653,VALID,-0.0679233,VALID,19.411,VALID,159,VALID,0.91682,
2001-12-13, 02:51:00,VALID,917.267,VALID,0,VALID,99.2564,VALID,-0.0169808,VALID,19.4075,VALID,143,VALID,1.04371,
2001-12-13, 02:52:00,VALID,917.247,VALID,0,VALID,99.2551,VALID,0,VALID,19.3941,VALID,143,VALID,0.6875,
2001-12-13, 02:53:00,VALID,917.254,VALID,0,VALID,99.2589,VALID,0,VALID,19.3943,VALID,133,VALID,0.922276,
2001-12-13, 02:54:00,VALID,917.253,VALID,0,VALID,99.2589,VALID,-0.0169808,VALID,19.3816,VALID,147,VALID,0.890825,
2001-12-13, 02:55:00,VALID,917.265,VALID,0,VALID,99.2487,VALID,0,VALID,19.3851,VALID,150,VALID,0.947098,
2001-12-13, 02:56:00,VALID,917.272,VALID,0,VALID,99.2487,VALID,0,VALID,19.3615,VALID,142,VALID,0.737109,
2001-12-13, 02:57:00,VALID,917.274,VALID,0,VALID,99.25,VALID,0,VALID,19.3687,VALID,136,VALID,0.703125,
2001-12-13, 02:58:00,VALID,917.287,VALID,0,VALID,99.2589,VALID,-0.0169808,VALID,19.3687,VALID,139,VALID,0.283008,
2001-12-13, 02:59:00,VALID,917.284,VALID,0,VALID,99.2627,VALID,-0.0169808,VALID,19.3749,VALID,125,VALID,0.0758024,
2001-12-13, 03:00:00,VALID,917.297,VALID,0,VALID,99.2653,VALID,0,VALID,19.3782,VALID,118,VALID,0.219184,
2001-12-13, 03:01:00,VALID,917.303,VALID,0,VALID,99.2805,VALID,-0.0509425,VALID,19.3951,VALID,87,VALID,0.0415179,
2001-12-13, 03:02:00,VALID,917.302,VALID,0,VALID,99.2818,VALID,0,VALID,19.3978,VALID,97,VALID,0.0500422,
2001-12-13, 03:03:00,VALID,917.308,VALID,0,VALID,99.2843,VALID,0,VALID,19.4043,VALID,135,VALID,0.259713,
2001-12-13, 03:04:00,VALID,917.327,VALID,0,VALID,99.2932,VALID,-0.0169808,VALID,19.4139,VALID,148,VALID,0.010016,
2001-12-13, 03:05:00,VALID,917.347,VALID,0,VALID,99.2831,VALID,0.0169808,VALID,19.4202,VALID,148,VALID,0,
2001-12-13, 03:06:00,VALID,917.361,VALID,0,VALID,99.2932,VALID,0,VALID,19.4463,VALID,148,VALID,0,
2001-12-13, 03:07:00,VALID,917.381,VALID,0,VALID,99.2831,VALID,0,VALID,19.4393,VALID,148,VALID,0,
2001-12-13, 03:08:00,VALID,917.401,VALID,0,VALID,99.2907,VALID,0.0169808,VALID,19.4393,VALID,140,VALID,0.114383,
2001-12-13, 03:09:00,VALID,917.41,VALID,0,VALID,99.2831,VALID,0,VALID,19.4395,VALID,154,VALID,0,
2001-12-13, 03:10:00,VALID,917.42,VALID,0,VALID,99.2742,VALID,-0.0169808,VALID,19.4366,VALID,158,VALID,0.341639,
2001-12-13, 03:11:00,VALID,917.43,VALID,0,VALID,99.2729,VALID,0,VALID,19.4331,VALID,142,VALID,0.261824,
2001-12-13, 03:12:00,VALID,917.426,VALID,0,VALID,99.2729,VALID,-0.0169808,VALID,19.4403,VALID,147,VALID,0.337891,
2001-12-13, 03:13:00,VALID,917.435,VALID,0,VALID,99.2691,VALID,-0.0169808,VALID,19.4333,VALID,129,VALID,0.0677734,
2001-12-13, 03:14:00,VALID,917.428,VALID,0,VALID,99.2704,VALID,0,VALID,19.4269,VALID,134,VALID,0.416602,
2001-12-13, 03:15:00,VALID,917.432,VALID,0,VALID,99.2653,VALID,-0.0339617,VALID,19.4169,VALID,150,VALID,0.399239,
2001-12-13, 03:16:00,VALID,917.424,VALID,0,VALID,99.2513,VALID,-0.0509425,VALID,19.4207,VALID,142,VALID,0.489984,
2001-12-13, 03:17:00,VALID,917.413,VALID,0,VALID,99.2615,VALID,-0.0169808,VALID,19.4174,VALID,118,VALID,0.333705,
2001-12-13, 03:18:00,VALID,917.41,VALID,0,VALID,99.2704,VALID,0,VALID,19.4005,VALID,103,VALID,0.377404,
2001-12-13, 03:19:00,VALID,917.388,VALID,0,VALID,99.2538,VALID,0,VALID,19.3911,VALID,105,VALID,0.887336,
2001-12-13, 03:20:00,VALID,917.396,VALID,0,VALID,99.2525,VALID,-0.0169808,VALID,19.3779,VALID,103,VALID,0.796464,
2001-12-13, 03:21:00,VALID,917.383,VALID,0,VALID,99.2475,VALID,-0.101885,VALID,19.3896,VALID,116,VALID,0.923394,
2001-12-13, 03:22:00,VALID,917.388,VALID,0,VALID,99.2589,VALID,-0.101885,VALID,19.3801,VALID,113,VALID,0.857639,
2001-12-13, 03:23:00,VALID,917.398,VALID,0,VALID,99.2475,VALID,-0.101885,VALID,19.3635,VALID,94,VALID,0.402803,
2001-12-13, 03:24:00,VALID,917.405,VALID,0,VALID,99.2576,VALID,-0.0849042,VALID,19.3766,VALID,94,VALID,0.772593,
2001-12-13, 03:25:00,VALID,917.42,VALID,0,VALID,99.2678,VALID,-0.135847,VALID,19.3801,VALID,81,VALID,0.592748,
2001-12-13, 03:26:00,VALID,917.424,VALID,0,VALID,99.2729,VALID,-0.101885,VALID,19.3831,VALID,99,VALID,0.750801,
2001-12-13, 03:27:00,VALID,917.411,VALID,0,VALID,99.2691,VALID,-0.101885,VALID,19.3896,VALID,102,VALID,0.703325,
2001-12-13, 03:28:00,VALID,917.41,VALID,0,VALID,99.2729,VALID,-0.0849042,VALID,19.3963,VALID,109,VALID,1.04107,
2001-12-13, 03:29:00,VALID,917.396,VALID,0,VALID,99.2602,VALID,-0.118866,VALID,19.3831,VALID,116,VALID,1.01738,
2001-12-13, 03:30:00,VALID,917.371,VALID,0,VALID,99.2678,VALID,-0.101885,VALID,19.3769,VALID,133,VALID,0.886133,
2001-12-13, 03:31:00,VALID,917.364,VALID,0,VALID,99.2576,VALID,-0.118866,VALID,19.3737,VALID,115,VALID,0.656445,
2001-12-13, 03:32:00,VALID,917.356,VALID,0,VALID,99.25,VALID,-0.101885,VALID,19.3704,VALID,128,VALID,0.594383,
2001-12-13, 03:33:00,VALID,917.335,VALID,0,VALID,99.2564,VALID,-0.101885,VALID,19.3573,VALID,141,VALID,0.91862,
2001-12-13, 03:34:00,VALID,917.323,VALID,0,VALID,99.2538,VALID,-0.101885,VALID,19.3376,VALID,138,VALID,1.02612,
2001-12-13, 03:35:00,VALID,917.322,VALID,0,VALID,99.2437,VALID,-0.0679233,VALID,19.3342,VALID,123,VALID,0.522593,
2001-12-13, 03:36:00,VALID,917.323,VALID,0,VALID,99.236,VALID,-0.0169808,VALID,19.3332,VALID,151,VALID,0.700169,
2001-12-13, 03:37:00,VALID,917.332,VALID,0,VALID,99.2551,VALID,-0.0169808,VALID,19.3198,VALID,153,VALID,0.864583,
2001-12-13, 03:38:00,VALID,917.331,VALID,0,VALID,99.2424,VALID,-0.0169808,VALID,19.3133,VALID,139,VALID,0.916466,
2001-12-13, 03:39:00,VALID,917.334,VALID,0,VALID,99.2462,VALID,0,VALID,19.2939,VALID,129,VALID,1.41897,